Location: Poughquag
(41.6090°N, 73.6820°W)
Time: 12:47:54
(UTC-04:00)

Vanguard 1 Rocket - Pass Details

Date: 29 May 2020
Orbit: 653 x 4224 km, 34.3° (Epoch: 06 July)

Event Time Altitude Azimuth Distance (km) Brightness Sun altitude
Rises 02:53:18 0° 249° (WSW) 7,447 - -20.8°
Reaches altitude 10° 02:59:10 10° 246° (WSW) 5,900 - -20.2°
Exits shadow 03:01:12 14° 245° (WSW) 5,338 10.8 -20.0°
Maximum altitude 03:14:23 55° 175° (S) 2,102 8.9 -18.6°
Drops below altitude 10° 03:22:11 10° 100° (E) 3,157 10.5 -17.8°
Sets 03:24:23 0° 95° (E) 3,851 11.1 -17.5°
